College Station, TX

12:39 PM CDT on October 18, 2017 (GMT -0500)
Easterwood

Weather History for KCLL - January, 2014

Change the Weather History Date:

Monday, January 6, 2014

  Actual Average Record
Temperature  
Mean Temperature 28 °F 51 °F  
Max Temperature 34 °F 60 °F 82 °F (1989)
Min Temperature 21 °F 41 °F 21 °F (1970)
Degree Days  
Heating Degree Days 37 15  
Month to date heating degree days 126 90  
Since 1 July heating degree days 944 726  
Cooling Degree Days 0 0  
Month to date cooling degree days 0 0  
Year to date cooling degree days 0 0  
Moisture  
Dew Point 10 °F    
Average Humidity 48    
Maximum Humidity 63    
Minimum Humidity 32    
Precipitation  
Precipitation 0.00 in 0.11 in 2.54 in (1998)
Month to date precipitation T 0.61  
Year to date precipitation T 0.61  
Sea Level Pressure  
Sea Level Pressure 30.65 in    
Wind  
Wind Speed 11 mph (North)    
Max Wind Speed 23 mph    
Max Gust Speed 28 mph    
Visibility 10 miles    
Events      
T = Trace of Precipitation, MM = Missing Value Source: NWS Daily Summary

Daily Weather History Graph

Daily Weather History Graph

Search for Another Location

Airport or City:

Trip Planner

Search our weather history database for the weather conditions in past years. The results will help you decide how hot, cold, wet, or windy it might be!

Date:

Astronomy

Jan. 06, 2014 Rise Set
Actual Time 7:23 AM CST 5:39 PM CST
Civil Twilight 6:57 AM CST 6:05 PM CST
Nautical Twilight 6:27 AM CST 6:35 PM CST
Astronomical Twilight 5:58 AM CST 7:04 PM CST
Moon 11:05 AM CST (1/6) 11:45 PM CST (1/6)
Length of Visible Light 11h 08m
Length of Day
10h 15m
Waxing Crescent, 35% of the Moon is Illuminated
Jan 6
Waxing Crescent
Jan 7
First Quarter
Jan 15
Full
Jan 23
Last Quarter
Jan 30
New

Hourly Weather History & Observations

Time (CST) Temp. Windchill Dew Point Humidity Pressure Visibility Wind Dir Wind Speed Gust Speed Precip Events Conditions
12:53 AM 30.0 °F 18.3 °F 18.0 °F 61% 30.47 in 10.0 mi North 17.3 mph - N/A   Clear
1:53 AM 28.0 °F 17.0 °F 17.1 °F 63% 30.51 in 10.0 mi North 13.8 mph - N/A   Clear
2:53 AM 26.1 °F 16.2 °F 16.0 °F 66% 30.51 in 10.0 mi North 10.4 mph - N/A   Clear
3:53 AM 25.0 °F 12.2 °F 14.0 °F 63% 30.54 in 10.0 mi North 16.1 mph 24.2 mph N/A   Clear
4:53 AM 24.1 °F 9.8 °F 12.9 °F 62% 30.57 in 10.0 mi North 19.6 mph 23.0 mph N/A   Clear
5:53 AM 23.0 °F 8.7 °F 10.9 °F 60% 30.59 in 10.0 mi North 18.4 mph - N/A   Clear
6:53 AM 21.9 °F 7.8 °F 9.0 °F 58% 30.63 in 10.0 mi North 17.3 mph - N/A   Clear
7:53 AM 21.0 °F 7.6 °F 8.1 °F 57% 30.67 in 10.0 mi North 15.0 mph - N/A   Clear
8:53 AM 21.9 °F 8.7 °F 9.0 °F 58% 30.71 in 10.0 mi North 15.0 mph - N/A   Clear
9:53 AM 25.0 °F 13.1 °F 8.1 °F 49% 30.75 in 10.0 mi North 13.8 mph - N/A   Clear
10:53 AM 27.0 °F 15.6 °F 8.1 °F 45% 30.75 in 10.0 mi North 13.8 mph - N/A   Clear
11:53 AM 28.9 °F 18.6 °F 8.1 °F 41% 30.72 in 10.0 mi North 12.7 mph - N/A   Clear
12:53 PM 30.0 °F 21.1 °F 7.0 °F 38% 30.70 in 10.0 mi North 10.4 mph - N/A   Clear
1:53 PM 30.9 °F 21.2 °F 6.1 °F 35% 30.68 in 10.0 mi North 12.7 mph - N/A   Clear
2:53 PM 33.1 °F 24.4 °F 6.1 °F 32% 30.66 in 10.0 mi North 11.5 mph - N/A   Clear
3:53 PM 32.0 °F 22.1 °F 6.1 °F 34% 30.67 in 10.0 mi NNE 13.8 mph 18.4 mph N/A   Clear
4:53 PM 30.9 °F 21.7 °F 7.0 °F 37% 30.68 in 10.0 mi North 11.5 mph - N/A   Clear
5:53 PM 30.0 °F 23.2 °F 8.1 °F 40% 30.66 in 10.0 mi North 6.9 mph - N/A   Clear
6:53 PM 28.0 °F 22.8 °F 10.0 °F 47% 30.68 in 10.0 mi NW 4.6 mph - N/A   Clear
7:53 PM 27.0 °F 21.6 °F 10.9 °F 51% 30.68 in 10.0 mi North 4.6 mph - N/A   Clear
8:53 PM 27.0 °F 21.6 °F 12.9 °F 56% 30.69 in 10.0 mi North 4.6 mph - N/A   Clear
9:53 PM 28.0 °F - 10.0 °F 47% 30.69 in 10.0 mi Calm Calm - N/A   Clear
10:53 PM 26.1 °F 21.9 °F 14.0 °F 60% 30.70 in 10.0 mi SW 3.5 mph - N/A   Clear
11:53 PM 25.0 °F - 14.0 °F 63% 30.68 in 10.0 mi Calm Calm - N/A   Clear